SCP
3 2 1 1 1 0 0 0 0 0 0 0 0 0 0 1 1 1 1 1 2 2 2 2 2 2 1 1 1 0 0 0 0 0 0 0 0 0 0 0 0 0 0 0 0 0 0 0 0
3 2 1 1 1 0 0 0 0 0 0 0 1 1 1 1 2 2 1 1 2 2 2 2 2 2 1 1 1 0 0 0 0 0 0 0 0 0 0 0 0 0 0 0 0 0 0 0 0
2 2 1 1 1 0 0 0 0 0 0 1 1 1 2 2 2 2 2 2 2 2 2 2 2 2 1 1 1 0 0 0 0 0 0 0 0 0 0 0 0 0 0 0 0 0 0 0 0
2 2 2 1 1 0 0 0 0 0 0 1 2 2 2 2 3 2 2 2 3 2 2 2 2 2 1 1 0 0 0 0 0 0 0 0 0 0 0 0 0 0 0 0 0 0 0 0 0
2 2 2 1 1 0 0 0 0 0 1 1 2 2 3 4 4 3 2 3 3 2 2 2 2 2 1 1 0 0 0 0 0 0 0 0 0 0 0 0 0 0 0 0 0 0 0 0 0
2 2 1 1 0 0 0 0 0 0 1 1 2 3 4 5 5 4 3 3 3 3 2 2 2 1 1 1 0 0 0 0 0 0 0 0 0 0 0 0 0 0 0 0 0 0 0 0 0
1 1 1 1 0 0 0 0 0 1 1 2 2 3 4 5 5 4 3 3 3 2 2 2 2 1 1 1 0 0 0 0 0 0 0 0 0 0 0 0 0 0 0 0 0 0 0 0 0
1 1 1 0 0 0 0 0 1 1 1 2 2 3 4 4 5 5 4 3 3 2 2 2 2 1 1 1 0 0 0 0 0 0 0 0 0 0 0 0 0 0 0 0 0 0 0 0 0
1 1 1 0 0 0 0 1 1 2 2 2 2 3 3 4 5 5 5 3 3 2 2 2 1 1 1 0 0 0 0 0 0 0 0 0 0 0 0 0 0 0 0 0 0 0 0 0 0
1 1 1 0 0 0 1 1 2 2 2 2 3 3 3 4 4 4 4 3 3 2 2 1 1 1 1 0 0 0 0 0 0 0 0 0 0 0 0 0 0 0 0 0 0 0 0 0 0
1 1 0 0 0 1 1 1 2 2 2 2 2 3 3 4 4 4 3 3 2 2 2 1 1 1 1 1 0 0 0 0 0 0 0 0 0 0 0 0 0 0 0 0 0 0 0 0 0
1 1 0 0 0 1 1 1 2 2 2 2 2 3 3 4 3 3 3 2 2 2 1 1 1 1 1 1 1 0 0 0 0 0 0 0 0 0 0 0 0 0 0 0 0 0 0 0 0
1 1 0 0 0 1 1 1 2 2 2 2 2 3 3 3 3 4 3 3 2 2 1 1 1 1 1 1 1 0 0 0 0 0 0 0 0 0 0 0 0 0 0 0 0 0 0 0 0
0 0 0 0 0 1 1 2 2 2 2 2 2 2 2 3 4 4 3 3 2 2 1 1 1 1 1 1 1 1 0 0 0 0 0 0 0 0 0 0 0 0 0 0 0 0 0 0 0
0 0 0 0 0 1 1 2 2 2 2 2 1 2 2 3 4 4 3 3 2 2 1 1 1 1 1 1 1 1 0 0 0 0 0 0 0 0 0 0 0 0 0 0 0 0 0 0 0
0 0 0 0 0 0 1 2 2 2 1 1 1 1 2 3 4 4 3 2 2 2 2 1 1 2 2 1 1 1 1 0 0 0 0 0 0 0 0 0 0 0 0 0 0 0 0 0 0
0 0 0 0 0 0 1 1 2 2 1 1 1 1 2 2 3 3 2 2 2 2 2 2 2 2 2 2 2 1 1 1 0 0 0 0 0 0 0 0 0 0 0 0 0 0 0 0 0
0 0 0 0 0 0 1 1 1 2 1 1 1 1 1 2 2 2 2 1 1 1 2 2 2 2 2 2 2 2 1 1 1 0 0 0 0 0 0 0 0 0 0 0 0 0 0 0 0
0 0 0 0 0 0 0 1 1 1 1 1 1 1 1 1 1 1 1 1 1 1 1 2 2 2 2 2 2 2 2 1 1 1 1 0 0 0 0 0 0 0 0 0 0 0 0 0 0
0 0 0 0 0 0 0 0 0 0 0 0 0 0 0 0 1 1 1 1 1 1 1 1 2 2 2 2 2 2 2 2 1 1 1 1 1 1 1 1 0 0 0 0 0 0 0 0 0
0 0 0 0 0 0 0 0 0 0 0 0 0 0 0 0 0 0 0 0 1 1 1 1 1 1 2 2 3 3 2 2 2 2 2 1 1 1 1 1 1 1 0 0 0 0 0 0 0
0 0 0 0 0 0 0 0 0 0 0 0 0 0 0 0 0 0 0 0 0 1 1 1 1 1 1 2 3 3 3 3 3 3 3 2 2 1 1 1 1 1 1 0 0 0 0 0 0
0 0 0 0 0 0 0 0 0 0 0 0 0 0 0 0 0 0 0 0 0 0 0 1 1 1 1 2 2 3 3 3 3 3 3 3 2 2 2 1 1 1 1 0 0 0 0 0 0
0 0 0 0 0 0 0 0 0 0 0 0 0 0 0 0 0 0 0 0 0 0 0 0 1 1 1 1 2 2 3 3 3 3 3 3 3 2 2 1 1 1 0 0 0 0 0 0 0
0 0 0 0 0 0 0 0 0 0 0 0 0 0 0 0 0 0 0 0 0 0 0 1 1 1 1 1 1 1 2 2 2 3 3 3 2 2 1 1 0 0 0 0 0 0 0 0 0
0 0 0 0 0 0 0 0 0 0 0 0 0 0 0 0 0 0 0 0 0 0 1 1 1 1 0 1 1 1 1 1 1 2 2 2 2 1 1 0 0 0 0 0 0 0 0 0 0
0 0 0 0 0 0 0 0 0 0 0 0 0 0 0 0 0 0 0 0 0 0 0 1 1 0 0 0 1 1 1 1 1 1 1 1 1 1 0 0 0 0 0 0 0 0 0 0 0
0 0 0 0 0 0 0 0 0 0 0 0 0 0 0 0 0 0 0 0 0 0 0 0 0 0 0 0 0 0 1 1 1 1 1 1 1 0 0 0 0 0 0 0 0 0 0 0 0
0 0 0 0 0 0 0 0 0 0 0 0 0 0 0 0 0 0 0 0 0 0 0 0 0 0 0 0 0 0 0 1 1 1 1 1 0 0 0 0 0 0 0 0 0 0 0 0 0
0 0 0 0 0 0 0 0 0 0 0 0 0 0 0 0 0 0 0 0 0 0 0 0 0 0 0 0 0 0 0 0 1 1 1 0 0 0 0 0 0 0 0 0 0 0 0 0 0
Wind_Speed
7 4 1 2 3 3 7 6 4 4 4 2 1 3 4 4 4 3 1 6 12 12 11 15 17 16 16 15 15 14 13 13 14 14 16 16 17 17 17 17 16 16 16 16 15 15 14 13 13
2 2 2 2 5 7 7 6 6 7 5 2 1 2 3 1 2 3 5 7 13 12 10 12 16 16 16 16 15 14 14 14 14 14 15 16 16 16 16 16 16 16 15 15 15 14 13 12 12
2 0 1 3 6 10 7 6 9 5 3 3 1 1 2 2 3 4 5 11 11 10 9 12 17 16 16 16 15 15 14 14 14 15 15 15 16 16 16 15 15 15 14 14 13 12 12 11 10
1 1 1 5 11 9 7 4 5 4 2 2 3 0 0 1 3 5 10 12 11 9 9 12 16 16 16 15 15 15 15 14 14 15 15 15 15 15 15 14 14 13 13 13 12 11 11 10 10
2 2 5 8 10 7 7 6 4 5 5 4 5 3 1 2 5 11 12 12 11 9 8 11 16 16 16 16 15 15 15 15 14 15 15 15 15 14 14 13 13 12 12 11 11 10 10 9 9
1 2 6 11 10 8 7 6 3 4 4 3 5 4 1 2 8 12 11 9 9 9 9 10 15 14 15 15 14 14 14 14 14 14 14 14 14 14 13 12 12 11 11 10 9 9 8 8 8
3 4 6 8 9 9 9 5 5 5 6 6 5 5 3 4 6 11 10 8 8 8 8 7 8 9 12 13 13 13 13 13 13 13 13 12 12 12 12 11 10 10 9 8 8 7 6 6 6
2 3 5 6 8 9 6 4 4 6 6 4 5 7 7 7 8 10 10 7 8 7 8 7 7 6 6 7 11 11 11 11 11 11 10 10 9 9 10 8 8 8 7 6 5 5 4 5 4
1 4 7 7 8 6 4 3 2 2 3 2 3 3 5 12 12 11 9 6 7 8 7 7 7 6 6 6 8 9 10 10 10 9 10 8 4 4 4 5 5 5 5 4 3 3 3 4 4
3 6 8 5 4 3 3 3 3 1 3 2 2 3 9 14 14 12 12 10 9 9 8 7 8 7 6 5 5 4 4 5 5 5 5 4 3 3 3 4 4 3 3 2 2 2 3 3 2
4 6 4 4 3 2 2 2 1 2 4 4 5 8 12 14 14 13 11 11 9 9 8 8 8 8 7 5 5 3 3 3 4 5 5 4 3 2 2 1 1 1 1 1 2 2 2 1 1
3 5 5 4 4 2 2 2 1 2 4 3 5 10 14 16 15 14 12 10 10 8 9 9 9 8 7 6 5 4 4 3 3 4 5 4 2 2 2 1 1 1 1 0 0 0 1 1 2
4 4 6 4 4 4 2 3 2 4 5 3 2 8 12 14 13 12 12 9 8 9 9 9 9 9 8 6 5 5 4 4 4 4 4 4 3 3 2 2 1 1 1 1 1 1 1 2 2
3 3 4 4 4 3 3 4 2 3 4 1 3 8 10 11 12 10 11 11 10 11 10 9 10 9 8 6 5 5 5 4 4 4 5 5 4 3 3 2 2 2 2 2 2 1 1 1 2
2 2 3 3 3 2 1 4 4 3 3 2 1 4 7 9 11 12 13 13 11 11 10 9 10 10 10 8 7 5 5 5 5 4 5 5 5 4 4 3 3 2 2 2 1 1 1 1 1
1 2 2 2 3 2 3 6 4 1 2 2 2 1 4 5 8 9 10 10 10 9 10 9 9 10 10 8 7 5 5 5 5 4 4 6 5 5 4 3 3 3 2 2 2 1 1 1 1
0 2 2 1 2 3 4 3 3 1 1 3 4 2 2 3 4 5 7 8 9 10 11 10 8 10 10 8 6 5 4 4 4 4 4 5 5 6 4 4 3 3 2 2 2 1 1 1 2
2 2 2 3 2 3 2 2 3 1 2 3 4 3 3 3 5 4 5 7 8 8 8 9 8 8 7 6 5 4 3 3 3 4 4 5 5 6 5 3 3 3 2 2 1 1 1 1 1
2 2 2 2 2 3 3 3 4 2 2 3 3 4 4 4 3 3 4 6 7 8 8 8 8 7 6 5 5 5 4 3 3 3 4 4 5 5 5 3 3 3 3 2 2 1 1 1 0
1 1 1 1 1 2 1 3 4 4 5 5 5 6 5 5 3 3 4 5 7 8 9 9 8 8 8 6 4 3 4 3 3 2 3 3 4 4 4 4 3 3 3 3 2 2 1 0 1
2 3 2 2 1 1 2 3 4 5 4 5 7 7 6 6 6 4 4 5 6 8 9 8 9 8 8 7 4 3 3 2 2 3 3 3 4 4 4 4 4 3 3 3 2 2 2 1 0
2 3 3 3 3 1 2 2 4 4 4 7 8 6 7 6 6 5 5 5 6 7 7 8 8 9 9 9 8 8 6 6 6 4 4 4 4 4 4 4 4 4 3 3 2 2 2 2 1
1 1 2 2 2 2 0 1 5 2 4 7 7 7 6 6 6 6 6 6 6 5 5 6 7 8 8 8 9 8 6 5 3 3 5 4 3 4 4 4 4 4 3 3 3 2 2 1 2
1 3 3 2 2 1 2 2 4 3 6 5 5 5 5 5 5 5 4 3 3 3 4 4 5 5 6 7 8 9 9 8 7 6 6 4 3 3 4 4 4 4 3 3 3 2 2 1 1
2 3 2 2 1 2 1 2 6 5 4 5 5 5 4 3 3 3 2 2 2 3 4 3 5 5 5 6 6 8 9 9 10 8 7 6 4 3 4 4 4 3 3 3 3 3 2 2 1
1 2 3 3 2 1 1 2 6 5 4 2 2 2 2 1 2 2 2 1 2 2 3 3 4 4 4 5 5 5 6 5 5 6 6 6 5 4 5 5 5 4 4 4 3 3 2 2 2
2 1 1 3 2 1 2 4 7 5 6 5 4 3 3 2 2 2 2 1 0 1 2 3 3 3 3 4 4 3 4 4 5 5 5 4 5 5 6 6 5 5 4 4 3 2 2 2 2
1 2 3 3 2 1 2 3 4 7 7 7 6 5 5 5 4 4 3 3 2 1 1 1 2 2 2 3 3 3 4 4 5 5 6 6 6 6 7 6 6 5 4 4 3 3 2 3 2
2 2 3 3 2 3 1 3 3 4 4 4 5 5 4 4 5 4 4 3 2 2 2 1 1 2 2 3 3 4 4 5 5 5 5 6 6 7 7 6 6 5 4 4 3 3 3 3 2
1 2 3 3 1 2 2 4 4 3 2 3 5 6 6 6 5 4 4 4 4 3 2 1 1 1 1 2 3 4 4 5 5 5 6 6 7 6 6 6 6 5 4 4 4 3 3 3 3
Wind_Direction
319 341 22 69 97 184 221 224 212 202 193 189 180 149 144 161 180 220 97 138 135 142 147 146 144 143 141 136 131 128 125 122 119 119 119 120 119 118 116 115 114 112 111 111 109 104 100 97 95
324 343 45 110 182 210 222 212 216 212 190 134 89 114 104 123 106 108 132 141 139 141 143 143 144 144 142 138 134 132 129 126 123 121 119 119 119 117 116 115 113 112 111 110 107 104 100 97 95
320 35 171 179 205 211 216 205 218 227 201 146 104 34 140 160 135 134 142 142 136 136 137 144 144 145 143 142 138 136 133 130 126 124 122 120 119 119 117 115 114 113 112 111 108 105 100 96 94
59 88 183 214 219 215 214 214 202 196 186 175 146 217 234 124 147 135 138 140 134 133 134 144 144 145 145 145 142 139 137 133 130 129 126 124 122 120 118 116 116 116 115 114 111 105 99 95 94
84 153 204 226 227 226 224 229 205 189 182 185 159 173 263 350 119 127 136 141 139 136 136 144 145 147 148 147 145 142 142 138 135 133 131 128 126 124 122 122 121 120 120 118 113 106 99 94 93
125 176 208 219 224 229 230 220 216 211 203 197 164 163 198 119 130 135 137 140 142 140 138 143 147 147 149 149 147 146 146 142 139 137 135 133 132 130 129 128 127 126 124 120 114 107 99 92 90
172 189 219 215 221 229 226 205 196 210 207 199 169 152 154 154 142 135 134 136 139 139 136 136 140 145 148 149 146 147 147 144 142 140 137 135 135 136 136 134 133 130 127 122 116 108 99 90 84
181 195 216 210 213 229 221 199 207 207 216 189 165 166 173 164 142 131 131 135 141 141 139 136 134 134 137 144 145 145 143 142 141 137 131 130 133 136 137 136 136 134 129 123 116 107 93 76 65
172 224 220 209 209 222 203 196 237 234 178 169 186 183 159 140 137 134 137 139 152 152 145 142 139 135 133 140 146 142 142 141 137 133 133 126 121 123 127 135 134 134 134 128 117 99 76 60 45
182 220 226 222 217 217 195 202 197 180 192 190 163 112 131 141 147 151 154 161 167 165 160 153 150 146 142 145 138 135 137 136 131 132 132 125 124 124 126 138 140 138 129 111 97 59 47 50 33
202 223 248 267 271 247 211 251 245 172 207 198 184 162 151 152 157 161 169 170 174 173 168 165 161 155 151 143 142 140 135 133 135 140 140 133 126 120 111 113 114 104 96 59 31 31 29 18 351
223 247 253 270 296 297 220 229 258 226 238 247 210 175 162 164 167 169 175 181 173 178 180 172 166 163 160 153 152 152 152 152 153 155 151 145 145 149 153 156 162 154 135 150 40 344 323 321 314
236 255 257 270 301 307 265 238 240 256 289 287 176 167 171 174 175 174 174 174 174 181 189 180 171 169 167 159 160 164 167 168 165 162 166 164 164 172 175 178 185 195 189 197 216 249 296 308 311
226 247 266 270 279 298 269 260 235 272 312 353 156 179 179 178 177 174 176 175 181 188 193 185 176 173 169 167 166 168 172 169 168 175 181 178 176 179 181 188 196 206 203 204 206 224 261 283 290
247 242 283 265 249 265 300 277 236 277 333 11 297 198 183 178 179 183 184 181 186 187 190 189 183 176 173 174 174 172 174 172 178 185 186 187 186 185 181 185 200 211 198 192 193 219 232 263 270
231 185 219 246 187 206 164 239 273 324 3 322 314 268 195 185 188 190 188 181 184 182 187 189 189 182 178 176 173 172 173 175 183 183 184 190 189 182 174 182 202 197 177 174 183 188 208 248 268
148 180 195 252 184 178 174 226 262 277 247 285 305 321 257 202 201 198 193 187 185 185 186 185 188 188 184 175 169 169 171 180 183 177 180 187 186 180 173 182 192 173 162 169 180 170 181 229 270
189 190 185 194 190 157 180 237 276 279 227 259 290 307 293 235 216 209 202 197 191 186 184 185 189 189 181 172 158 158 167 180 182 184 184 182 181 176 171 172 175 162 156 160 163 170 175 216 266
178 173 175 223 203 164 198 241 260 262 271 269 270 277 275 266 236 206 208 202 192 185 185 186 185 185 177 177 172 174 182 178 181 188 180 180 176 171 169 167 162 158 161 164 161 153 166 234 271
200 179 185 298 203 165 181 268 271 250 232 240 246 252 251 253 243 214 200 195 192 189 190 190 191 186 188 191 179 171 162 154 165 164 159 169 174 174 168 164 161 159 151 143 143 146 154 187 106
240 212 211 184 99 52 94 298 265 262 236 244 242 239 237 230 232 223 209 201 194 196 195 195 194 193 194 188 161 134 113 110 142 162 162 174 174 170 164 160 153 150 149 154 157 157 161 178 175
231 227 207 175 128 98 134 270 276 252 262 249 246 243 239 236 231 226 214 215 206 209 197 192 192 195 197 186 178 176 180 193 196 179 169 166 160 154 153 146 144 145 144 145 146 140 142 147 183
212 177 140 127 115 83 96 156 289 285 259 253 245 242 242 241 231 229 217 217 211 202 190 188 191 194 194 190 186 187 194 199 181 156 155 154 146 142 140 139 139 133 130 132 127 124 123 143 169
144 73 61 47 69 49 220 164 281 242 231 253 254 246 246 246 240 240 233 215 207 189 180 176 183 197 193 192 189 191 193 188 179 177 173 165 153 138 137 130 130 129 132 136 131 124 128 134 147
73 90 71 43 51 264 181 160 257 268 260 246 254 259 260 251 241 248 242 215 189 177 178 175 181 193 189 188 191 195 193 189 189 184 179 169 166 166 158 142 137 130 129 124 120 118 121 127 142
159 132 146 153 169 307 54 238 268 297 307 294 268 268 286 292 255 252 253 230 202 174 167 168 182 187 180 182 187 189 184 183 186 180 172 172 167 158 148 138 133 128 125 123 123 119 130 129 135
120 120 162 113 87 68 310 305 312 353 13 23 30 33 10 347 338 327 334 346 350 149 165 171 177 181 178 174 163 163 165 165 164 155 147 144 140 139 141 138 133 128 127 128 125 123 129 128 128
109 137 89 95 118 103 335 327 315 336 353 4 17 19 4 5 12 6 359 1 9 34 67 110 146 161 160 155 155 150 149 148 147 146 147 143 140 138 141 139 135 130 127 126 122 123 127 127 131
57 66 86 88 104 134 107 302 298 303 334 1 5 10 14 15 11 4 1 8 18 33 47 68 109 131 141 144 140 137 137 136 135 137 140 138 136 141 143 141 136 136 133 128 126 133 139 140 135
163 160 136 126 125 116 129 285 325 334 350 29 22 18 17 19 14 12 12 19 23 20 16 12 24 131 154 148 143 143 137 135 135 137 139 137 137 138 138 137 136 138 138 138 143 152 147 148 150